CST,Max TemperatureF,Mean TemperatureF,Min TemperatureF,Max Dew PointF,MeanDew PointF,Min DewpointF,Max Humidity, Mean Humidity, Min Humidity, Max Sea Level PressureIn, Mean Sea Level PressureIn, Min Sea Level PressureIn, Max VisibilityMiles, Mean VisibilityMiles, Min VisibilityMiles, Max Wind SpeedMPH, Mean Wind SpeedMPH, Max Gust SpeedMPH,PrecipitationIn, CloudCover, Events, WindDirDegrees
2014-2-1,29,21,13,21,18,7,84,76,68,30.34,30.00,29.87,10,8,0,22,11,25,0.01,8,Fog-Snow,351
2014-2-2,23,13,2,8,4,-1,86,68,50,30.48,30.39,30.35,10,10,9,10,4,11,0.00,0,,8
2014-2-3,36,21,5,20,11,1,80,60,40,30.35,30.25,30.14,10,10,9,17,7,20,0.00,4,,140
2014-2-4,32,21,10,25,18,5,92,76,59,30.40,30.15,30.01,10,1,0,30,17,36,0.00,8,Fog-Snow,42
2014-2-5,10,6,1,4,-2,-7,86,72,57,30.77,30.60,30.34,10,7,2,30,16,35,0.00,5,Snow,344
2014-2-6,10,4,-3,-2,-5,-10,79,65,50,30.75,30.66,30.50,10,10,10,9,4,11,T,7,,310
2014-2-7,16,10,3,12,3,-4,80,74,67,30.48,30.34,30.20,10,9,4,13,7,17,T,8,Snow,156
2014-2-8,28,22,16,23,19,12,88,82,75,30.26,30.14,30.06,7,5,3,14,6,16,0.00,8,,177
2014-2-9,26,20,13,22,12,6,84,76,67,30.50,30.33,30.19,10,7,2,21,12,27,T,6,Snow,19
2014-2-10,16,14,11,7,5,2,83,68,53,30.55,30.48,30.42,10,6,1,15,7,16,T,7,Snow,35
2014-2-11,20,15,10,9,5,3,70,63,56,30.52,30.39,30.24,10,10,10,15,8,18,0.00,5,,161
2014-2-12,37,26,14,27,21,6,85,75,64,30.21,30.11,29.97,10,10,8,21,9,25,0.00,2,,260
2014-2-13,50,37,24,32,27,20,85,68,50,29.94,29.85,29.70,10,10,9,14,6,15,0.00,0,,196
2014-2-14,51,40,28,34,29,23,78,64,50,30.12,29.95,29.63,10,10,10,26,12,32,T,1,,344
2014-2-15,59,44,28,36,29,24,85,63,40,30.11,29.99,29.88,10,10,10,22,11,31,0.00,3,,236
2014-2-16,55,41,26,34,30,23,85,66,46,30.13,30.00,29.75,10,10,10,20,9,24,0.00,0,,127
2014-2-17,62,48,33,34,28,17,82,50,17,30.08,29.96,29.74,10,10,10,36,15,44,0.00,1,Rain,265
2014-2-18,74,56,38,28,26,22,53,34,14,30.03,29.84,29.73,10,10,10,28,14,33,0.00,0,,245
2014-2-19,59,46,32,33,28,23,75,52,28,30.02,29.81,29.49,10,10,10,17,7,21,0.00,4,,128
2014-2-20,51,43,34,40,31,17,96,61,26,29.96,29.63,29.37,10,8,1,40,22,48,0.08,6,Rain-Snow-Thunderstorm,333
2014-2-21,61,43,25,23,19,17,75,47,19,29.96,29.91,29.84,10,10,10,28,12,35,0.00,0,,244
2014-2-22,58,42,25,29,24,20,81,53,25,30.10,29.96,29.89,10,10,10,21,9,25,0.00,0,,29
2014-2-23,35,28,21,21,16,9,75,57,38,30.39,30.30,30.12,10,10,10,21,11,27,0.00,4,,34
2014-2-24,45,33,20,21,16,13,73,54,34,30.38,30.26,30.09,10,10,10,17,8,23,0.00,2,,92
2014-2-25,27,22,17,18,12,3,80,63,45,30.59,30.44,30.33,10,8,1,23,15,29,T,7,Snow,359
2014-2-26,37,16,-6,19,8,-7,91,68,44,30.56,30.33,30.08,10,8,1,18,8,22,T,1,Snow,269
2014-2-27,44,30,16,17,14,11,80,54,27,30.15,30.00,29.80,10,10,10,20,10,26,0.00,0,,91
2014-2-28,55,41,27,33,22,12,69,54,38,30.11,29.83,29.68,10,10,9,22,12,26,0.00,3,,83